Theta_e
306 307 307 308 308 309 309 308 306 305 305 307 305 306 306 307 307 307 307 307 306 306 306 307 310 313 314 314 315 313 314 317 311 309 308 308 308 309 310 309 309 310 309 308 308 308 308
306 307 307 308 308 309 308 308 307 305 305 305 305 305 305 306 306 306 306 306 306 306 306 307 309 313 312 315 312 312 315 313 310 308 308 309 308 308 308 307 307 307 307 308 307 307 307
306 307 307 308 309 308 308 308 307 306 305 304 304 305 304 301 305 305 305 306 306 306 306 307 309 312 312 314 309 312 312 309 310 307 307 306 306 307 307 307 306 306 307 307 307 306 307
306 307 307 308 309 307 306 306 307 306 305 304 304 304 304 304 299 302 308 310 311 309 308 310 311 310 314 311 309 308 306 306 307 306 306 306 306 307 307 306 306 307 307 310 306 307 307
306 306 306 308 308 305 305 306 306 306 304 304 304 304 304 300 299 308 309 311 310 310 311 309 308 308 312 309 310 308 308 307 307 307 306 306 306 307 306 308 309 308 313 309 308 307 308
306 306 306 308 308 307 305 306 306 306 304 304 303 303 304 301 303 309 309 310 309 309 309 308 308 308 308 310 309 308 306 307 307 307 307 307 307 308 308 308 313 309 310 308 308 308 307
306 306 306 307 308 308 306 305 306 306 304 304 303 302 303 302 307 307 307 306 310 310 309 311 311 309 307 307 307 307 307 305 305 306 309 307 309 310 307 306 305 306 307 308 309 308 309
305 306 306 305 307 307 307 307 305 305 304 304 303 300 301 302 305 306 305 305 303 306 309 308 308 308 308 306 308 306 307 307 307 309 307 309 310 308 306 305 306 307 309 311 310 308 310
304 305 305 305 305 307 307 307 307 304 304 304 303 301 299 300 303 304 303 302 302 303 310 307 307 308 309 308 308 307 307 307 307 308 307 309 308 307 307 307 308 309 311 312 312 310 312
306 304 305 305 306 305 306 306 307 306 301 300 303 301 300 299 302 301 303 302 303 303 312 307 308 308 308 308 309 307 307 308 309 308 308 308 306 306 307 308 308 312 310 310 311 313 317
307 304 304 305 305 305 305 306 306 306 305 302 302 302 300 300 302 303 303 303 303 304 314 308 309 306 308 309 308 308 308 309 311 311 309 308 310 310 312 312 309 313 311 313 313 314 315
307 306 303 304 305 305 305 305 305 305 305 304 302 302 302 301 302 301 302 303 303 320 312 309 308 309 310 309 309 308 308 308 308 311 310 310 307 310 310 311 311 311 312 314 314 315 319
308 307 304 303 304 304 305 305 305 305 305 304 302 301 302 302 303 302 302 304 319 312 307 309 309 309 310 310 309 310 309 310 311 316 314 311 312 311 309 313 313 312 314 321 323 322 322
308 308 306 303 303 303 304 305 305 305 305 304 302 301 301 302 302 303 302 313 312 309 309 308 310 310 310 312 311 311 311 312 310 311 313 314 318 314 313 314 317 316 318 322 323 322 321
308 307 307 305 302 303 304 305 305 305 304 303 302 302 302 303 302 302 311 314 312 309 310 310 311 312 313 313 312 312 312 312 311 310 314 316 317 313 313 314 315 319 321 317 322 320 323
308 307 307 305 302 303 304 304 304 305 304 302 301 302 303 303 303 304 315 311 311 309 310 310 313 312 314 312 313 313 314 313 313 311 310 314 317 313 315 314 314 316 316 322 320 322 323
308 307 307 306 299 303 304 304 305 305 302 301 301 310 302 302 301 311 312 311 310 308 308 311 311 314 314 314 314 315 315 314 314 315 312 314 316 316 314 318 319 317 320 318 318 318 323
307 308 307 306 297 303 304 304 304 305 301 302 303 316 302 302 313 309 312 308 306 309 308 310 310 309 312 314 315 315 315 313 313 313 314 313 315 317 316 314 315 314 317 317 319 321 318
307 307 307 306 298 303 304 305 303 303 301 301 307 307 301 302 316 312 307 308 307 310 310 310 311 310 310 311 314 314 313 311 312 313 314 313 315 317 314 314 313 314 315 313 314 315 318
307 307 307 306 298 303 304 302 301 302 301 300 305 315 309 306 303 310 311 310 311 307 309 308 310 309 310 311 309 311 310 310 309 311 312 312 313 314 316 314 313 313 312 314 314 318 319
307 306 307 306 299 302 303 301 302 302 302 300 303 306 302 312 310 307 308 309 311 312 309 309 310 310 310 311 310 311 311 310 309 307 310 310 314 312 312 312 311 311 311 315 315 315 320
306 306 306 307 302 301 302 301 302 303 302 301 306 307 301 304 303 306 307 310 310 309 310 311 311 310 311 312 312 313 311 310 309 309 309 308 314 310 311 310 311 311 311 311 316 316 316
306 306 306 307 305 299 302 301 302 303 303 302 298 299 305 301 305 306 308 308 309 307 309 309 310 310 310 311 310 310 309 310 310 310 309 309 311 312 313 307 307 309 309 311 313 313 317
307 306 306 306 306 299 302 302 302 302 302 302 300 299 304 307 305 306 305 304 307 307 308 309 308 309 308 306 305 305 306 308 308 309 307 310 310 310 314 309 310 307 307 309 312 311 312
309 307 306 306 306 299 302 302 301 302 302 302 301 300 303 304 303 303 304 305 305 305 306 307 308 306 305 307 310 309 308 306 307 307 307 307 309 312 312 310 307 306 304 309 310 312 308
310 308 306 306 306 303 301 301 301 301 301 301 299 299 299 302 303 302 305 304 307 307 307 307 304 303 306 307 309 309 308 307 308 307 304 305 307 310 308 309 306 305 306 305 306 310 305
311 310 308 306 305 305 299 301 301 301 301 300 299 299 298 302 300 300 304 306 304 305 307 305 306 307 305 309 309 309 309 305 308 308 306 308 308 310 310 309 308 304 306 304 310 307 305
311 311 310 307 306 305 304 299 301 301 301 301 299 298 299 300 300 296 299 302 302 304 307 304 306 305 309 310 309 309 309 307 307 306 307 307 307 308 308 310 310 305 305 308 307 304 306
311 311 310 309 306 305 305 299 301 301 301 300 300 299 298 298 301 297 298 299 300 301 304 302 305 306 308 310 308 308 310 307 306 308 302 307 307 307 307 308 304 304 307 304 303 305 305
Wind_Speed
22 24 26 28 29 29 28 25 24 24 25 23 23 24 19 14 10 8 6 4 3 3 3 3 3 16 17 7 5 5 6 17 18 12 11 8 8 5 7 5 5 4 3 3 6 7 11
23 23 26 28 30 30 29 26 21 21 21 19 18 17 15 13 10 8 5 3 1 1 2 3 6 11 7 11 5 9 19 19 14 12 8 5 5 7 9 4 2 2 3 7 8 10 8
23 24 26 29 31 31 29 26 22 19 19 17 16 15 13 11 11 9 6 5 5 3 5 6 11 8 14 8 14 17 20 18 10 14 7 7 10 3 7 7 3 1 4 6 6 2 3
23 25 26 30 31 32 30 27 25 18 19 17 16 15 14 12 10 10 7 5 4 8 8 10 20 11 6 13 15 19 19 18 15 15 16 10 11 9 3 7 3 2 3 3 4 2 1
24 25 26 30 30 31 31 27 25 18 18 19 18 16 16 12 10 12 15 22 23 18 19 16 12 11 5 14 10 16 10 11 16 14 11 8 4 4 4 3 3 2 2 4 3 2 1
24 24 26 29 30 29 32 30 25 22 19 19 18 12 18 14 11 17 21 29 28 27 27 24 16 7 6 5 5 4 7 5 6 10 7 3 3 2 2 1 1 2 1 4 7 1 7
24 24 26 28 30 30 29 31 27 22 21 20 17 13 17 18 13 10 9 5 2 7 17 11 13 17 12 12 8 6 4 9 5 2 3 3 2 3 4 4 4 3 2 8 10 6 9
24 24 25 26 28 29 28 28 26 22 21 20 18 12 15 17 9 5 10 5 3 3 11 20 16 10 7 4 6 4 3 1 2 6 4 3 5 3 5 5 3 2 5 7 9 1 9
24 25 25 25 25 26 27 26 26 23 20 19 18 17 8 12 9 18 19 9 4 2 6 8 10 6 4 4 5 4 5 2 4 4 2 3 6 7 4 4 3 4 7 5 6 11 10
24 23 24 24 25 23 25 25 25 25 24 21 18 18 13 4 5 8 4 5 4 3 5 11 8 5 5 1 5 4 4 2 1 3 2 2 3 5 3 4 5 5 4 7 7 9 4
23 22 22 24 23 23 22 23 23 23 21 19 18 17 13 9 5 3 2 3 8 1 5 8 5 5 7 4 4 1 4 4 3 2 3 3 5 5 3 4 9 3 3 8 11 9 8
25 23 21 22 23 23 22 23 21 22 22 17 14 19 12 7 8 3 3 7 2 1 6 3 5 4 3 3 2 1 2 1 2 2 1 3 0 4 5 4 11 7 10 11 5 3 4
25 23 23 22 22 22 22 22 22 22 20 20 13 12 15 7 2 7 8 4 1 6 1 2 2 2 3 4 2 1 1 2 3 1 5 5 3 2 5 4 1 5 5 2 3 3 2
26 23 23 22 22 22 22 22 22 22 22 18 7 10 10 7 4 4 4 2 10 4 5 1 1 3 4 4 2 1 0 2 1 2 1 3 2 5 7 4 1 3 2 2 4 3 7
24 25 23 25 23 23 22 24 23 23 25 10 1 6 7 9 3 3 2 6 3 1 1 2 3 1 2 2 2 1 1 1 1 6 0 2 1 3 7 2 2 2 3 1 4 4 3
21 25 23 25 24 24 23 24 24 23 23 7 1 3 7 6 3 3 5 6 2 1 2 2 1 1 1 1 1 0 1 3 2 5 3 1 3 2 2 4 4 4 2 3 2 3 3
19 22 25 23 27 26 26 26 23 22 20 4 2 2 11 4 4 5 4 4 2 2 2 2 2 1 1 2 2 2 1 4 5 6 5 2 2 0 2 6 5 2 2 2 2 3 3
18 19 24 25 29 26 28 25 22 20 19 4 1 2 10 3 2 2 3 1 1 1 0 2 2 3 1 1 2 1 2 2 4 5 2 3 3 5 3 4 7 1 0 2 3 4 3
17 19 22 25 28 28 27 24 20 19 18 3 2 0 3 3 2 2 3 4 2 2 3 2 1 3 3 2 2 2 1 2 6 5 2 4 2 4 2 4 4 5 5 4 3 3 6
14 17 19 23 26 25 25 22 21 20 14 3 2 1 2 3 2 1 3 2 4 3 3 1 3 1 1 2 1 3 4 1 2 2 4 3 3 6 4 5 2 4 5 7 9 4 3
12 15 17 21 22 23 23 22 22 20 10 3 4 2 1 2 4 3 3 0 2 4 2 1 3 4 1 1 1 2 3 4 2 4 1 2 4 3 12 14 9 9 10 7 13 11 6
9 12 15 17 20 21 20 20 22 21 9 5 1 2 2 3 1 4 3 1 2 1 3 2 4 5 5 3 3 3 1 2 1 2 2 1 3 4 6 3 8 11 12 12 10 12 13
9 10 13 15 17 18 17 17 19 21 10 4 2 1 2 1 3 1 1 2 3 4 2 4 2 2 4 5 6 8 8 6 3 2 1 2 4 4 4 5 9 11 15 15 7 7 6
11 10 12 13 15 14 14 14 15 16 16 6 2 1 1 3 4 3 2 1 1 4 6 4 3 4 6 7 3 2 5 8 9 10 8 3 2 2 4 6 3 3 3 1 8 7 11
12 11 9 12 13 12 10 11 12 12 11 10 3 2 0 1 2 4 7 4 2 3 3 3 3 2 8 5 4 4 3 3 6 7 12 9 3 3 3 3 12 1 2 2 3 3 4
11 10 9 9 12 12 8 7 9 10 10 5 7 3 2 2 3 0 3 4 3 3 3 4 3 3 1 1 2 3 3 4 2 2 2 3 7 5 3 4 5 3 4 4 2 5 3
12 10 9 7 8 11 9 6 6 7 8 5 4 3 2 2 2 4 4 3 3 1 3 2 1 2 1 2 3 3 3 1 4 3 4 4 5 10 9 6 8 4 5 4 4 2 1
13 12 11 9 8 8 9 8 6 4 5 5 2 3 1 1 4 6 6 4 3 2 2 2 2 2 2 3 2 2 3 1 3 3 3 4 3 5 3 5 6 5 5 4 4 1 2
15 13 13 12 11 10 9 9 8 6 4 3 0 3 5 4 3 6 13 14 7 5 3 3 1 1 2 2 3 1 3 3 3 4 3 4 4 3 5 3 3 5 4 2 3 7 8
Wind_Direction
11 7 360 356 354 354 358 2 3 4 10 24 47 35 44 55 69 74 72 73 79 87 108 89 121 153 138 97 64 4 170 165 143 135 138 134 147 134 140 138 133 192 174 241 264 265 269
11 4 4 357 356 358 1 5 359 6 8 18 29 52 47 28 34 37 28 16 269 145 119 140 155 153 166 99 53 93 122 132 128 122 120 136 142 117 111 118 210 126 228 260 267 270 258
9 7 3 360 2 2 4 5 1 6 7 12 18 28 36 30 14 7 356 302 248 187 156 168 166 142 89 80 96 101 115 100 127 124 106 97 122 125 127 130 120 127 283 262 249 245 254
10 8 4 4 7 8 6 5 3 14 7 10 11 14 22 14 29 11 27 328 170 134 133 135 137 93 81 109 98 92 87 86 99 97 101 106 103 95 81 121 125 199 234 247 156 209 146
9 10 6 8 12 13 14 13 8 20 13 11 13 15 26 27 35 66 48 82 102 94 94 102 87 77 97 126 81 99 99 99 97 94 92 92 76 83 134 166 160 73 269 290 278 212 252
10 8 6 9 12 14 16 16 16 18 18 14 21 30 26 33 80 103 93 92 82 81 100 90 92 88 344 65 80 96 112 99 96 110 98 64 69 110 87 153 233 132 319 286 272 70 292
9 8 7 10 11 14 15 19 23 28 19 18 23 19 22 32 115 113 108 111 109 52 42 54 73 82 84 90 89 86 90 111 107 101 90 48 149 95 105 91 87 93 286 286 286 307 296
10 7 9 10 11 13 14 17 22 26 21 17 20 29 42 35 102 87 71 66 40 117 64 40 70 74 71 86 111 134 7 63 71 96 109 164 101 73 119 140 159 224 294 292 299 214 304
10 9 9 11 10 11 13 16 16 20 22 18 16 21 21 46 50 69 69 45 48 48 82 30 36 28 342 17 95 116 355 34 75 90 87 61 105 124 142 156 199 240 254 282 281 314 273
9 12 9 11 11 9 11 11 15 12 22 19 21 31 24 73 53 352 41 18 38 358 82 7 12 34 358 50 69 20 5 6 100 83 137 75 122 183 204 243 221 281 206 267 293 332 313
8 9 11 9 11 9 8 9 7 5 7 18 19 23 18 73 105 82 280 18 343 324 72 350 10 319 329 51 127 90 357 332 52 21 240 105 170 182 223 248 190 281 224 278 287 282 296
4 5 9 8 7 10 7 7 3 358 355 3 9 19 36 57 60 30 300 303 235 160 65 3 356 8 57 341 65 72 334 332 293 318 260 281 55 257 249 241 221 306 309 291 248 240 241
360 3 2 7 4 4 5 4 0 351 349 352 349 356 23 38 77 337 323 281 67 56 164 35 53 300 24 63 96 31 341 11 5 352 19 329 221 227 224 265 174 237 281 271 209 213 303
358 359 360 2 4 2 1 1 359 348 343 337 7 2 8 25 337 341 324 53 64 21 63 116 7 320 64 5 109 117 50 10 139 256 9 36 134 194 193 248 11 213 222 312 298 297 318
357 356 357 359 0 2 2 356 356 352 346 353 65 21 23 4 8 63 53 58 83 208 102 178 181 14 73 340 354 13 252 316 250 212 46 332 263 170 208 209 243 104 223 52 274 228 261
357 357 357 357 357 0 1 356 353 354 350 3 45 44 14 1 69 331 64 86 77 340 297 229 353 255 124 143 235 267 348 140 199 188 234 9 297 176 135 185 218 221 352 219 187 283 277
352 357 358 356 358 358 0 0 353 351 355 38 23 43 357 1 351 61 65 83 50 323 294 267 354 334 43 196 239 220 276 185 206 164 181 342 294 312 215 202 180 195 213 189 303 253 291
349 351 359 359 360 359 1 2 355 355 0 30 95 47 343 342 19 64 101 109 6 38 277 315 287 290 285 193 273 273 347 331 154 155 212 210 304 275 258 171 197 98 271 202 256 172 233
348 350 358 1 0 4 3 6 7 359 4 350 67 100 4 359 107 80 130 130 136 81 36 23 327 4 356 355 312 333 328 39 167 193 253 166 223 294 216 177 167 240 187 227 245 293 234
348 345 353 4 1 4 5 11 13 2 358 13 118 55 45 70 24 76 137 116 140 164 135 157 16 193 349 45 16 309 333 214 317 225 241 208 256 245 275 325 351 267 253 213 210 218 212
347 344 349 1 3 5 5 9 11 6 6 49 3 101 36 24 32 358 345 335 162 167 196 123 133 90 179 346 287 349 333 310 159 3 152 250 272 246 262 267 250 255 265 232 214 242 241
343 344 342 358 2 5 6 12 14 11 6 64 66 152 135 104 20 350 340 249 248 247 221 207 175 176 154 170 213 251 233 229 300 345 359 355 285 316 288 299 227 255 255 236 236 247 251
344 341 335 349 1 4 7 14 20 24 28 75 81 77 274 120 128 245 25 328 291 317 244 315 301 227 225 244 234 264 259 258 243 261 287 289 315 331 274 349 304 268 252 211 211 224 242
337 337 331 339 352 6 10 17 24 32 42 57 63 32 260 157 197 194 174 129 330 337 316 328 278 282 13 328 294 225 231 242 237 232 225 221 236 218 286 319 266 26 25 139 226 257 224
331 331 327 328 340 354 13 18 22 30 34 52 44 360 317 261 269 189 195 192 235 214 225 254 254 297 315 313 293 282 210 221 210 222 213 219 221 233 261 268 286 205 179 209 224 280 257
315 316 318 320 323 336 351 13 19 24 21 38 41 37 328 290 225 44 183 198 221 212 217 219 206 295 317 343 291 290 300 347 274 162 82 194 264 250 181 240 251 149 173 168 175 261 350
298 303 300 298 303 317 325 334 2 18 23 19 42 36 86 293 204 173 204 200 160 233 271 293 277 165 350 230 252 248 261 310 279 260 185 204 219 234 240 256 282 165 156 148 200 114 196
290 292 294 285 274 290 306 304 305 346 14 16 322 12 59 239 264 209 202 168 149 206 231 91 261 173 162 212 237 245 248 253 268 269 255 230 226 216 201 238 280 133 121 222 23 62 279
285 287 286 286 269 264 279 291 289 287 323 8 194 310 309 237 278 234 236 231 214 190 181 182 292 217 223 207 205 229 232 211 243 273 181 252 241 317 236 278 7 224 310 305 338 305 292